Location: Newark
(5.5500°N, 0.2500°W)
Time: 02:04:06
(UTC+00:00)

Hubble Space Telescope - Pass Details

Date: 26 September 2019
Orbit: 536 x 540 km, 28.5° (Epoch: 21 October)

Event Time Altitude Azimuth Distance (km) Brightness Sun altitude
Exits shadow 03:38:08 13° 55° (NE) 1,564 3.7 -33.6°
Drops below altitude 10° 03:39:04 10° 66° (ENE) 1,771 4.1 -33.3°
Sets 03:41:58 0° 87° (E) 2,663 5.4 -32.6°
